Hourly Data Report for June 25, 2006

TORONTO CITY
ONTARIO

43°40'00.000" N
79°24'00.000" W
112.50 m
6158355
71508
XTO

Download Data

Hourly Data (June 2006)
Hourly Data Report for June 25, 2006
TIME
LST
Temp Definition
°C
Dew Point Definition
°C
Rel Hum Definition
%
Precip. Amount Definition
mm

Wind Dir Definition
10's deg

Wind Spd Definition
km/h
Visibility Definition
km
Stn Press Definition
kPa
Hmdx Definition


Wind Chill Definition


Weather Definition


00:00 19.5 13.9 70   LegendMM LegendMM   100.62     LegendNANA
01:00 19.3 12.0 63   LegendMM LegendMM   100.58     LegendNANA
02:00 19.2 11.9 63   LegendMM LegendMM   100.58     LegendNANA
03:00 18.2 11.9 67   LegendMM LegendMM   100.54     LegendNANA
04:00 18.1 12.1 68   LegendMM LegendMM   100.54     LegendNANA
05:00 17.6 12.3 71   LegendMM LegendMM   100.54     LegendNANA
06:00 17.8 12.6 72   LegendMM LegendMM   100.55     LegendNANA
07:00 19.0 13.4 70   LegendMM LegendMM   100.56     LegendNANA
08:00 21.0 14.5 66   LegendMM LegendMM   100.56 25   LegendNANA
09:00 23.0 14.8 60   LegendMM LegendMM   100.54 27   LegendNANA
10:00 24.0 15.3 58   LegendMM LegendMM   100.51 28   LegendNANA
11:00 24.8 14.1 51   LegendMM LegendMM   100.51 28   LegendNANA
12:00 25.6 15.6 54   LegendMM LegendMM   100.48 30   LegendNANA
13:00 24.8 14.6 53   LegendMM LegendMM   100.46 29   LegendNANA
14:00 25.0 16.2 58   LegendMM LegendMM   100.40 30   LegendNANA
15:00 25.1 14.6 52   LegendMM LegendMM   100.37 29   LegendNANA
16:00 24.2 14.7 55   LegendMM LegendMM   100.38 28   LegendNANA
17:00 22.7 17.0 70   LegendMM LegendMM   100.38 28   LegendNANA
18:00 23.0 15.7 63   LegendMM LegendMM   100.33 27   LegendNANA
19:00 23.6 15.4 60   LegendMM LegendMM   100.34 28   LegendNANA
20:00 22.6 15.4 64   LegendMM LegendMM   100.33 27   LegendNANA
21:00 22.7 14.5 60   LegendMM LegendMM   100.34 26   LegendNANA
22:00 23.1 13.7 55   LegendMM LegendMM   100.33 26   LegendNANA
23:00 23.3 14.4 57   LegendMM LegendMM   100.34 27   LegendNANA

Notes on Data Quality.

Legend

  • E = Estimated
  • M = Missing
  • NA = Not Available*
  • [empty] = Indicates an unobserved value
Date modified: